(233452) = 2006 JT2 = 2000 AY220

Discovered at Mount Lemmon on 2006-05-02 by Mt. Lemmon Survey.

Orbit

Orbit type: Main Belt

Note: WebGL enabled browser required.

epoch2023-09-13.0
epoch JD2460200.5
perihelion date2021-10-25.52255
perihelion JD2459513.02255
argument of perihelion (°)278.50214
ascending node (°)1.48012
inclination (°)1.68496
eccentricity0.0480420
perihelion distance (AU)2.7437032
Tisserand w.r.t. Jupiter3.3
ΔV w.r.t. Earth (km/sec)10.3
semimajor axis (AU)2.8821683
mean anomaly (°)138.47880
mean daily motion (°/day)0.20143030
aphelion distance (AU)3.021
period (years)4.89
P-vector [x]0.17333208
P-vector [y]-0.89163286
P-vector [z]-0.41826647
Q-vector [x]0.98486314
Q-vector [y]0.15725133
Q-vector [z]0.07291505
absolute magnitude16.7
phase slope0.15
uncertainty0
referenceMPEC 2024-A12
observations used271
oppositions17
arc length (days)8762
first opposition used2000
last opposition used2024
residual rms (arc-secs)0.81
perturbers coarse indicatorM-v
perturbers precise indicator003Ek
first observation date used2000-01-05.0
last observation date used2024-01-01.0
computer nameMPCLINUX
JD of orbit computation2456671.050235
perihelion JD uncertainty (days)6.6239E-04
argument of perihelion uncertainty (°)3.3626E-04
ascending node uncertainty (°)3.0968E-04
inclination uncertainty (°)8.0113E-06
eccentricity uncertainty 9.2745E-08
perihelion distance uncertainty (AU)2.4998E-07
Minimum Orbit Intersection Distances (in AU)
for orbit epoch: 2460200.5, reference: E2024-A12
Mercury2.28199
Venus2.0162
Earth1.72728
Mars1.22962
Jupiter2.03143
Saturn6.03842
Uranus15.4996
Neptune26.9001

Observations

274 total observations over interval: 2000 01 05.36706 – 2024 01 01.268863
These data are available for download (format description).

Date (UT) J2000 RA J2000 Dec Magn Location Ref
2000 01 05.36706 08 02 28.21 +22 49 46.4 21.1 V 691 – Steward Observatory, Kitt Peak-Spacewatch MPS 175169
2000 01 05.39004 08 02 26.97 +22 49 49.7 20.6 V 691 – Steward Observatory, Kitt Peak-Spacewatch MPS 175169
2000 01 05.41313 08 02 25.74 +22 49 53.4 20.5 V 691 – Steward Observatory, Kitt Peak-Spacewatch MPS 175169
2000 01 08.44404 07 59 43.95 +22 57 33.4 19.9 V 691 – Steward Observatory, Kitt Peak-Spacewatch MPS 9468
2000 01 08.46645 07 59 42.78 +22 57 38.3 20.8 V 691 – Steward Observatory, Kitt Peak-Spacewatch MPS 9468
2000 01 08.49224 07 59 41.31 +22 57 41.2 21.0 V 691 – Steward Observatory, Kitt Peak-Spacewatch MPS 9468
2003 11 21.23111 02 22 51.11 +16 00 37.1 22.2 V 691 – Steward Observatory, Kitt Peak-Spacewatch MPS 175169
2003 11 21.26332 02 22 49.68 +16 00 31.0 21.7 V 691 – Steward Observatory, Kitt Peak-Spacewatch MPS 175169
2003 11 21.28996 02 22 48.44 +16 00 24.3 21.9 V 691 – Steward Observatory, Kitt Peak-Spacewatch MPS 175169
2005 01 07.37200 08 45 10.93 +20 15 52.6 21.2 V 691 – Steward Observatory, Kitt Peak-Spacewatch MPS 175169
2005 01 07.39547 08 45 09.84 +20 15 56.8 21.2 V 691 – Steward Observatory, Kitt Peak-Spacewatch MPS 175169
2005 01 07.41412 08 45 08.96 +20 16 00.2 21.0 V 691 – Steward Observatory, Kitt Peak-Spacewatch MPS 175169
2005 01 15.36520 08 38 39.59 +20 40 31.4 20.9 V 691 – Steward Observatory, Kitt Peak-Spacewatch MPS 175169
2005 01 15.39105 08 38 38.18 +20 40 36.1 20.7 V 691 – Steward Observatory, Kitt Peak-Spacewatch MPS 175169
2005 01 15.41674 08 38 36.80 +20 40 40.9 21.1 V 691 – Steward Observatory, Kitt Peak-Spacewatch MPS 175169
2006 03 26.40137 14 27 17.24 -15 43 11.2 21.4 V 691 – Steward Observatory, Kitt Peak-Spacewatch MPS 173609
2006 03 26.41869 14 27 16.72 -15 43 09.9 21.4 V 691 – Steward Observatory, Kitt Peak-Spacewatch MPS 173609
2006 03 26.43601 14 27 16.21 -15 43 07.6 21.0 V 691 – Steward Observatory, Kitt Peak-Spacewatch MPS 173609
2006 05 02.26509 14 00 08.60 -13 49 05.1 20.0 R 695 – Kitt Peak MPS 173609
2006 05 02.29016 14 00 07.30 -13 48 59.5 20.6 V G96 – Mt. Lemmon Survey MPS 170958
2006 05 02.29477 14 00 07.09 -13 48 58.2 20.3 V G96 – Mt. Lemmon Survey MPS 170958
2006 05 02.29934 14 00 06.84 -13 48 57.2 20.4 V G96 – Mt. Lemmon Survey MPS 170958
2006 05 02.30377 14 00 06.66 -13 48 55.9 20.5 V G96 – Mt. Lemmon Survey MPS 170958
2006 05 02.38667 14 00 02.47 -13 48 36.4   695 – Kitt Peak MPS 173609
2006 05 03.27853 13 59 19.32 -13 45 07.5 20.2 V G96 – Mt. Lemmon Survey MPS 170958
2006 05 03.28413 13 59 19.03 -13 45 06.4 20.3 V G96 – Mt. Lemmon Survey MPS 170958
2006 05 03.28980 13 59 18.74 -13 45 04.8 20.4 V G96 – Mt. Lemmon Survey MPS 170958
2006 05 03.29527 13 59 18.49 -13 45 04.0 20.6 V G96 – Mt. Lemmon Survey MPS 170958
2006 05 31.21420 13 42 40.89 -12 19 10.3 21.6 V G96 – Mt. Lemmon Survey MPS 172909
2006 05 31.22175 13 42 40.75 -12 19 09.5 21.8 V G96 – Mt. Lemmon Survey MPS 172909
2006 05 31.22925 13 42 40.64 -12 19 09.3 21.4 V G96 – Mt. Lemmon Survey MPS 172909
2006 05 31.23669 13 42 40.46 -12 19 08.1 21.5 V G96 – Mt. Lemmon Survey MPS 172909
2006 06 01.16992 13 42 23.54 -12 17 32.6 21.1 V G96 – Mt. Lemmon Survey MPS 172909
2006 06 01.17666 13 42 23.40 -12 17 31.6 20.9 V G96 – Mt. Lemmon Survey MPS 172909
2006 06 01.18338 13 42 23.32 -12 17 31.2 21.4 V G96 – Mt. Lemmon Survey MPS 172909
2006 06 01.19020 13 42 23.14 -12 17 30.0 21.1 V G96 – Mt. Lemmon Survey MPS 172909
2008 10 20.31061 03 32 53.21 +20 55 40.0 20.7 V 691 – Steward Observatory, Kitt Peak-Spacewatch MPS 260635
2008 10 20.32827 03 32 52.51 +20 55 38.1 21.0 V 691 – Steward Observatory, Kitt Peak-Spacewatch MPS 260635
2008 10 20.34592 03 32 51.83 +20 55 36.5 20.6 V 691 – Steward Observatory, Kitt Peak-Spacewatch MPS 260635
2008 10 28.26941 03 27 02.27 +20 40 16.5 20.7 V 691 – Steward Observatory, Kitt Peak-Spacewatch MPS 261618
2008 10 28.28713 03 27 01.40 +20 40 14.4 20.8 V 691 – Steward Observatory, Kitt Peak-Spacewatch MPS 261618
2008 10 28.30484 03 27 00.49 +20 40 11.6 20.8 V 691 – Steward Observatory, Kitt Peak-Spacewatch MPS 261618
2008 11 01.26347 03 23 44.57 +20 30 39.5 20.6 V 691 – Steward Observatory, Kitt Peak-Spacewatch MPS 263271
2008 11 01.28119 03 23 43.68 +20 30 36.6 20.7 V 691 – Steward Observatory, Kitt Peak-Spacewatch MPS 263271
2008 11 01.29893 03 23 42.74 +20 30 33.8 20.7 V 691 – Steward Observatory, Kitt Peak-Spacewatch MPS 263271
2008 11 20.19750 03 06 55.62 +19 33 14.0 20.7 V G96 – Mt. Lemmon Survey MPS 265282
2008 11 20.20306 03 06 55.26 +19 33 12.8 20.3 V G96 – Mt. Lemmon Survey MPS 265282
2008 11 20.20872 03 06 55.00 +19 33 11.7 20.3 V G96 – Mt. Lemmon Survey MPS 265282
2008 11 20.21428 03 06 54.68 +19 33 10.9 20.6 V G96 – Mt. Lemmon Survey MPS 265282
2010 01 06.35123 09 28 45.50 +16 53 37.9 21.3 V 691 – Steward Observatory, Kitt Peak-Spacewatch MPS 309420
2010 01 06.36893 09 28 44.95 +16 53 40.3 21.2 V 691 – Steward Observatory, Kitt Peak-Spacewatch MPS 309420
2010 01 06.38661 09 28 44.30 +16 53 44.3 20.6 V 691 – Steward Observatory, Kitt Peak-Spacewatch MPS 309420
2010 02 17.29881 08 55 17.68 +19 12 32.8 20.9 V G96 – Mt. Lemmon Survey MPS 313309
2010 02 17.30476 08 55 17.40 +19 12 33.5 20.6 V G96 – Mt. Lemmon Survey MPS 313309
2010 02 17.31068 08 55 17.07 +19 12 34.5 21.1 V G96 – Mt. Lemmon Survey MPS 313309
2010 02 17.31671 08 55 16.78 +19 12 35.4 20.9 V G96 – Mt. Lemmon Survey MPS 313309
2010 03 14.21088 08 40 39.36 +19 52 13.4 20.7 V G96 – Mt. Lemmon Survey MPS 319207
2010 03 14.21674 08 40 39.18 +19 52 13.8 20.7 V G96 – Mt. Lemmon Survey MPS 319207
2010 03 14.22270 08 40 39.07 +19 52 13.2 20.9 V G96 – Mt. Lemmon Survey MPS 319207
2010 03 14.22863 08 40 38.96 +19 52 14.2 21.3 V G96 – Mt. Lemmon Survey MPS 319207
2011 05 08.25674 14 48 41.79 -18 09 57.4 20.1 V G96 – Mt. Lemmon Survey MPS 382985
2011 05 08.26602 14 48 41.29 -18 09 55.5 20.0 V G96 – Mt. Lemmon Survey MPS 382985
2011 05 08.27529 14 48 40.78 -18 09 54.0 20.0 V G96 – Mt. Lemmon Survey MPS 382985
2012 08 25.30032 22 05 00.63 -13 15 59.8 20.1 V G96 – Mt. Lemmon Survey MPS 430913
2012 08 25.30957 22 05 00.16 -13 16 02.4 20.4 V G96 – Mt. Lemmon Survey MPS 430913
2012 08 25.31880 22 04 59.70 -13 16 04.4 20.3 V G96 – Mt. Lemmon Survey MPS 430913
2012 08 25.32809 22 04 59.23 -13 16 06.3 20.1 V G96 – Mt. Lemmon Survey MPS 430914
2013 12 30.18742 03 24 57.70 +20 50 13.6 21.1 V G96 – Mt. Lemmon Survey MPS 494982
2013 12 30.19648 03 24 57.54 +20 50 13.4 20.7 V G96 – Mt. Lemmon Survey MPS 494982
2013 12 30.20554 03 24 57.36 +20 50 12.4 20.9 V G96 – Mt. Lemmon Survey MPS 494982
2013 12 30.21458 03 24 57.16 +20 50 11.1 21.2 V G96 – Mt. Lemmon Survey MPS 494982
2015 01 19.33084 10 03 50.00 +13 38 26.5 21.2 V 691 – Steward Observatory, Kitt Peak-Spacewatch MPS 566535
2015 01 19.35108 10 03 49.28 +13 38 30.3 21.1 V 691 – Steward Observatory, Kitt Peak-Spacewatch MPS 566535
2015 01 19.37133 10 03 48.52 +13 38 34.1 21.2 V 691 – Steward Observatory, Kitt Peak-Spacewatch MPS 566535
2015 01 20.44584 10 03 10.457 +13 41 59.14 21.2 w F51 – Pan-STARRS 1, Haleakala MPS 566535
2015 01 20.45922 10 03 09.943 +13 42 01.68 21.1 w F51 – Pan-STARRS 1, Haleakala MPS 566535
2015 01 20.47267 10 03 09.447 +13 42 04.21 21.2 w F51 – Pan-STARRS 1, Haleakala MPS 566535
2015 01 20.54907 10 03 06.545 +13 42 19.13 21.2 w F51 – Pan-STARRS 1, Haleakala MPS 566535
2015 01 20.56165 10 03 06.064 +13 42 21.52 21.4 w F51 – Pan-STARRS 1, Haleakala MPS 566535
2015 01 20.57429 10 03 05.590 +13 42 24.01 21.2 w F51 – Pan-STARRS 1, Haleakala MPS 566535
2015 01 20.58704 10 03 05.102 +13 42 26.50 21.4 w F51 – Pan-STARRS 1, Haleakala MPS 566535
2015 01 22.44446 10 01 55.868 +13 48 35.75 21.1 w F51 – Pan-STARRS 1, Haleakala MPS 566535
2015 01 22.45806 10 01 55.325 +13 48 38.56 21.2 w F51 – Pan-STARRS 1, Haleakala MPS 566535
2015 01 22.47167 10 01 54.779 +13 48 41.28 21.1 w F51 – Pan-STARRS 1, Haleakala MPS 566535
2015 01 22.57247 10 01 50.727 +13 49 01.81 21.0 w F51 – Pan-STARRS 1, Haleakala MPS 566535
2015 01 22.58476 10 01 50.229 +13 49 04.39 21.2 w F51 – Pan-STARRS 1, Haleakala MPS 566535
2015 01 22.59708 10 01 49.742 +13 49 06.83 21.3 w F51 – Pan-STARRS 1, Haleakala MPS 566535
2015 02 10.30634 09 47 19.63 +15 01 17.2 20.4 V G96 – Mt. Lemmon Survey MPS 578940
